Location: Unspecified
(0.0000°N, 0.0000°E)
Time: 18:48:36
(UTC+00:00)

Courier 1B - Pass Details

Date: 23 November 2019
Orbit: 963 x 1209 km, 28.3° (Epoch: 06 December)

Event Time Altitude Azimuth Distance (km) Brightness Sun altitude
Rises 10:12:27 0° 320° (NW) 3,654 10.2 59.3°
Reaches altitude 10° 10:15:35 10° 333° (NNW) 2,690 9.6 59.9°
Maximum altitude 10:20:50 26° 27° (NNE) 1,791 9.2 60.8°
Drops below altitude 10° 10:26:06 10° 82° (E) 2,696 10.2 61.7°
Sets 10:29:13 0° 95° (E) 3,663 10.8 62.3°
